Flag for Austria Weather past 2 weeks in Oberpullendorf, Burgenland, Austria

Now
63 °F

Mild.


Feels Like: 63 °F
Forecast: 57 / 75 °F
Wind: 1 mph from South

Location: Eisenstadt

Current Time: Sep 20, 2014 at 10:42:30 AM

Latest Report: Sep 20, 2014 at 10:00 AM


Visibility: N/A

Pressure: 29.97 "Hg

Humidity: 91%

Dew point: 60 °F

Location of OberpullendorfLocation

Historic Weather in Oberpullendorf — Graph

°F

Oberpullendorf temperature yesterday

Maximum temperature yesterday: 72 °F (at 5:00 PM)
Minimum temperature yesterday: 56 °F (at 7:00 AM)
Average temperature yesterday: 64 °F

Past Weeks' High & Low Weather Summary

 TemperatureHumidityPressure
High78 °F (Sep 9, 2:00 PM)99% (Sep 9, 9:00 AM)30.09 "Hg (Sep 9, 9:00 AM)
Low51 °F (Sep 18, 7:00 AM)53% (Sep 17, 3:00 PM)29.77 "Hg (Sep 12, 5:00 AM)
Average62 °F84%29.98 "Hg
* Reported Sep 5 9:00 AM — Sep 20 9:00 AM, Oberpullendorf, Weather by CustomWeather, © 2014

Note: Actual official high and low records may vary slightly from our data, if they occured in-between our weather recording intervals... More about our weather records

Advertising

Oberpullendorf weather history for previous 24 hours

 ConditionsComfort  
Time TempWeatherWind HumidityBarometerVisibility
9:00 AM
Sep 20
60 °FCool.No wind97%29.97 "HgN/A
8:00 AM60 °FFog.1 mph97%29.98 "Hg0 mi
7:00 AM60 °FFog.1 mph96%29.98 "Hg0 mi
6:00 AM60 °FFog.1 mph96%29.97 "Hg2 mi
5:00 AM60 °FOvercast.1 mph96%29.97 "Hg5 mi
4:00 AM60 °FOvercast.2 mph95%29.96 "Hg6 mi
3:00 AM60 °FCool.2 mph94%29.99 "HgN/A
2:00 AM60 °FPassing clouds.2 mph94%29.97 "Hg6 mi
1:00 AM62 °FCool.2 mph92%29.96 "HgN/A
12:00 AM62 °FCool.2 mph91%29.97 "HgN/A
10:00 PM
Sep 19
62 °FCool.2 mph91%29.98 "HgN/A
9:00 PM64 °FMild.1 mph88%29.99 "HgN/A
8:00 PM66 °FPassing clouds.3 mph81%29.97 "Hg6 mi
7:00 PM68 °FPassing clouds.2 mph76%29.97 "Hg6 mi
6:00 PM71 °FMild.6 mph67%29.96 "HgN/A
5:00 PM72 °FPartly sunny.6 mph66%29.98 "Hg6 mi
4:00 PM71 °FMild.5 mph66%29.98 "HgN/A
3:00 PM71 °FMild.5 mph66%29.99 "HgN/A
2:00 PM70 °FScattered clouds.5 mph69%30.00 "Hg6 mi
1:00 PM68 °FMild.3 mph73%30.01 "HgN/A
12:00 PM66 °FMild.5 mph75%30.01 "HgN/A
11:00 AM62 °FOvercast.2 mph82%30.03 "Hg6 mi
10:00 AM58 °FCool.2 mph90%30.03 "HgN/A
Weather by CustomWeather, © 2014

See weather overviewHow to use our weather pages